Regional Weather Roundup
Issued by NWS Goodland, KS

Home | Current Version | Previous Version | Graphics & Text | Print | Product List | Glossary On
Versions: 1 2 3 4 5 6 7 8 9 10 11 12 13 14 15 16 17 18 19 20 21 22 23 24 25 26 27 28 29 30 31 32 33 34 35 36 37 38 39 40 41 42 43 44 45 46 47 48 49 50
000
ASUS43 KGLD 251308
RWRGLD

GOODLAND FORECAST AREA HOURLY WEATHER ROUNDUP
NATIONAL WEATHER SERVICE GOODLAND KS
700 AM MDT FRI JUL 25 2014

...OFFICIAL OBSERVATIONS...

CITY           SKY/WX    TMP DP  RH WIND       PRES   REMARKS
GOODLAND KS    MOSUNNY   72  57  59 W5        29.93R
HILL CITY KS   MOSUNNY   82  61  48 SW16G26   29.82S
IMPERIAL NEB   SUNNY     69  58  67 W6        29.89R
MCCOOK NEB     SUNNY     70  59  68 SW8       29.83S
AKRON CO       PTSUNNY   69  54  58 W15       30.01R
BURLINGTON CO  MOSUNNY   69  54  58 W7        29.97R
LIMON CO       MOSUNNY   67  55  65 NW8       30.09R
$$

...UNOFFICIAL OBSERVATIONS...

CITY           SKY/WX    TMP DP  RH WIND       PRES   REMARKS
COLBY KS       SUNNY     73  61  64 SW6       29.90R
GOVE KS          N/A     78  32  18 MISG        N/A
NORTON KS      SUNNY     79  55  44 SW10      29.82R
OBERLIN KS     FAIR      77  55  47 SW5       29.85R
SHARON SPRINGS   N/A     71  56  59 CALM        N/A
ST FRANCIS KS  PTSUNNY   70  55  60 W6        29.91R
TRIBUNE KS     MOSUNNY   73 N/A N/A SW13      29.95R
WAKEENEY KS      N/A     79  58  48 MISG        N/A
KIT CARSON CO    N/A     73  53  50 N5          N/A
WRAY CO          N/A     70  57  64 W8        29.93R
YUMA CO          N/A     69  56  64 W9          N/A
$$



USA.gov is the U.S. government's official web portal to all federal, state and local government web resources and services.